HST 1 20580U 90037B 25112.94380361 .00010002 00000-0 38572-3 0 9990 2 20580 28.4682 59.1969 0001813 199.1762 160.8764 15.24593795724245 ISS (ZARYA) 1 25544U 98067A 25112.83104192 .00022666 00000-0 40580-3 0 9991 2 25544 51.6380 221.2117 0005698 66.6769 78.6517 15.49861426506572 CXO 1 25867U 99040B 25113.90655150 .00000969 00000-0 00000-0 0 9997 2 25867 48.2708 132.4403 8506107 308.4906 0.8416 0.37805197 15738